Tracking 27126 objects as of 31-Mar-2023
HD Live streaming from Space Station
objects crossing your sky now

COSMOS 2494 (SKRL 756)

Track COSMOS 2494 (SKRL 756) now!
10-day predictions
COSMOS 2494 (SKRL 756) is classified as:


NORAD ID: 39491
Int'l Code: 2013-078B
Perigee: 583.5 km
Apogee: 611.8 km
Inclination: 82.4 °
Period: 96.5 minutes
Semi major axis: 6968 km
RCS: Unknown
Launch date: December 28, 2013
Source: Commonwealth of Independent States (former USSR) (CIS)
Launch site: PLESETSK MISSILE AND SPACE COMPLEX (PKMTR)
Your satellite tracking list
Your tracking list is empty




NASA's NSSDC Master Catalog

Two Line Element Set (TLE):
1 39491U 13078B   23089.91006541  .00005075  00000-0  49164-3 0  9997
2 39491  82.4168 312.5798 0020314 195.4198 164.6405 14.92388137503032
Source of the keplerian elements: AFSPC